AirNav   Air Wisconsin pilot careers
 
 490 users online  

WI56 C Jeidy Farms Airport
Bloomington, Wisconsin, USA

GOING TO BLOOMINGTON?


FAA INFORMATION EFFECTIVE 12 OCTOBER 2017

Location

FAA Identifier: WI56
Lat/Long: 42-52-53.9600N / 090-51-38.4560W
42-52.899333N / 090-51.640933W
42.8816556 / -90.8606822
(estimated)
Elevation: 1010 ft. / 308 m (estimated)
Variation: 01E (1985)
From city: 3 miles E of BLOOMINGTON, WI
Time zone: UTC -5 (UTC -6 during Standard Time)
Zip code: 53804

Airport Operations

Airport use: Private use. Permission required prior to landing
Activation date: 02/1975
Control tower: no
ARTCC: CHICAGO CENTER
FSS: GREEN BAY FLIGHT SERVICE STATION
Attendance: UNATNDD
Wind indicator: yes
Segmented circle: no

Airport Communications

WX AWOS-3 at PDC (14 nm NW): 119.925 (608-326-9122)
WX ASOS at OVS (19 nm NE): 126.775 (608-375-2712)

Nearby radio navigation aids

VOR radial/distance  VOR name  Freq  Var
DBQr343/29.6DUBUQUE VORTAC115.8004E
UKNr124/38.1WAUKON VORTAC116.6005E

 
NDB name  Hdg/Dist  Freq  Var  ID
MINERAL POINT268/27.936501EMRJ -- .-. .---

Airport Services

Airframe service: NONE
Powerplant service: NONE

Runway Information

Runway 18/36

Dimensions: 2000 x 75 ft. / 610 x 23 m
Surface: turf
RUNWAY 18  RUNWAY 36
Traffic pattern: leftleft

Airport Ownership and Management from official FAA records

Ownership: Privately-owned
Owner: CHARLES E. JEIDY
RR 1
BLOOMINGTON, WI 53804
Phone 608-994-2313

Airport Operational Statistics

Aircraft based on the field: 1
Single engine airplanes: 1
    

Instrument Procedures

There are no published instrument procedures at WI56.

Some nearby airports with instrument procedures:

KPDC - Prairie du Chien Municipal Airport (14 nm NW)
KOVS - Boscobel Airport (19 nm NE)
KPVB - Platteville Municipal Airport (22 nm SE)
KMRJ - Iowa County Airport (27 nm E)
KDBQ - Dubuque Regional Airport (30 nm S)
 
Loc | Ops | Rwys | IFR | FBO | Links
Com | Nav | Svcs | Stats | Notes


 
Area around WI56 (C Jeidy Farms Airport)
 
Road maps at: MapQuest Bing Google
 
Aerial photo
No photo
 
Sectional chart

 
Airport distance calculator
Flying to C Jeidy Farms Airport? Find the distance to fly.

From to WI56

Sunrise and sunset
Times for 24-Oct-2017
 Local
(UTC-5)
 Zulu
(UTC)
Morning civil twilight07:0012:00
Sunrise07:2912:29
Sunset18:0723:07
Evening civil twilight18:3623:36

Current date and time
Zulu (UTC)  24-Oct-2017 05:12:19
Local (UTC-5)  24-Oct-2017 00:12:19
 
METAR
KPDC 
14nm NW 
240455Z AUTO 31016G20KT 10SM OVC028 09/03 A2971 RMK AO2 T00900028
KOVS 
18nm NE 
240453Z AUTO 32010KT 10SM BKN026 OVC035 11/06 A2968 RMK AO2 SLP054 T01060056
KPVB 
22nm SE 
240455Z AUTO 29009KT 10SM OVC028 09/07 A2967 RMK AO1 T00870070
TAF
KDBQ 
30nm S 
232359Z 2400/2424 32015G25KT P6SM BKN050 FM241000 32020G28KT P6SM VCSH OVC025 FM241600 32022G33KT P6SM BKN035
NOTAMs
Click for the latest NOTAMs
NOTAMs are issued by the DoD/FAA and will open in a separate window not controlled by AirNav.

 

 
 

Would you like to see your business listed on this page?

 If your business provides an interesting product or service to pilots, flight crews, aircraft, or users of the C Jeidy Farms Airport, you should consider listing it here.  To start the listing process, click on the button below
 
Add a business
 

Other Pages about C Jeidy Farms Airport

Update a link
 
Copyright © AirNav, LLC. All rights reserved. Privacy Policy  Contact